Temperature
21 21 20 20 20 20 20 19 19 19 18 18 18 18 17 17 17 17 17 17 17 16 16 16 16 16 16 16 16 16 15 15 15 14 13 13 13 13 13 13 13 13 12
21 21 21 20 20 20 20 19 19 19 18 18 18 17 17 17 17 17 16 16 16 16 16 16 16 16 15 15 15 15 15 15 15 14 13 13 12 12 12 12 12 12 12
21 21 21 20 20 20 19 19 19 19 18 18 18 17 17 17 17 16 16 16 16 16 16 16 16 15 15 15 15 15 15 15 15 14 13 13 12 12 12 12 12 12 11
21 21 20 20 20 20 19 19 19 18 18 18 17 17 17 17 16 16 16 16 15 15 15 15 15 15 15 15 15 15 15 14 14 14 13 12 12 12 12 12 11 11 11
21 20 20 20 20 20 19 19 19 18 18 18 17 17 17 16 16 16 15 15 15 15 15 15 15 15 15 15 15 15 15 14 14 13 13 12 12 12 12 11 11 11 11
21 21 20 20 20 20 19 19 18 18 18 17 17 17 16 16 16 16 15 15 15 15 15 15 15 15 15 14 14 14 14 14 14 13 13 12 12 12 12 11 11 11 10
21 20 20 20 20 19 19 18 18 18 17 17 17 16 16 16 16 16 15 15 15 14 14 14 14 14 14 14 14 14 14 13 14 14 13 13 12 12 12 11 11 11 11
21 20 20 20 19 19 19 18 18 17 17 17 16 16 16 16 16 16 15 15 15 14 14 14 14 14 14 14 13 13 13 13 13 13 13 13 12 12 12 12 11 11 11
21 20 20 20 19 19 19 18 18 17 17 16 16 16 16 16 16 15 15 15 14 14 14 14 14 14 14 13 13 13 13 13 13 12 12 12 12 12 12 11 11 11 11
20 20 20 19 19 19 19 18 18 17 17 16 16 16 16 16 16 15 15 15 14 14 14 14 14 14 13 13 13 13 13 12 12 12 12 12 12 12 11 11 11 11 11
20 20 20 19 19 19 18 18 18 17 17 16 16 16 16 16 16 15 15 15 14 14 14 14 14 13 13 13 13 13 12 12 12 12 12 12 11 11 11 11 11 11 11
20 20 19 19 19 18 18 18 17 17 16 16 16 15 15 15 15 15 15 15 14 14 14 13 13 13 13 13 13 12 12 12 12 12 11 11 11 11 11 11 11 11 11
19 19 19 18 18 18 18 17 17 17 16 16 16 15 15 15 15 15 15 14 14 14 13 13 13 13 13 13 12 12 12 12 12 12 11 11 11 11 11 11 11 10 10
19 18 18 18 18 17 17 17 17 16 16 16 15 15 15 15 15 15 15 14 14 13 13 13 13 13 13 12 12 12 12 12 12 12 11 11 11 11 11 11 10 10 10
18 18 17 17 17 17 17 17 17 17 16 16 16 16 15 15 15 15 15 14 14 14 13 13 13 12 12 12 12 12 12 12 11 11 11 11 11 11 11 10 10 10 10
17 17 16 16 16 16 16 16 16 16 16 16 16 16 15 15 15 15 14 14 14 13 13 13 13 12 12 12 12 12 11 11 11 11 11 11 11 11 11 10 10 10 10
17 16 16 16 16 16 16 16 16 16 16 16 16 15 15 15 15 14 14 14 13 13 13 13 13 12 12 12 12 12 12 11 11 11 11 11 11 11 11 10 10 10 10
16 16 16 16 15 15 16 16 16 16 16 15 15 15 15 15 14 14 14 13 13 13 13 12 12 12 12 12 12 12 12 12 11 11 11 11 11 11 11 10 10 10 10
16 16 16 15 15 15 15 15 15 15 15 15 15 15 14 14 14 14 13 13 13 13 13 13 13 12 12 12 12 12 12 12 11 11 11 11 11 10 10 10 10 10 10
15 15 15 15 15 15 15 15 15 15 15 15 15 15 15 14 13 13 13 13 13 13 13 13 13 12 12 12 12 12 12 11 11 11 11 11 10 10 10 10 10 10 10
15 15 15 15 15 15 15 15 15 14 14 15 15 15 15 14 14 14 13 13 13 13 13 13 12 12 12 12 12 12 11 11 11 11 11 10 10 10 10 10 10 10 10
15 15 15 14 15 15 15 15 14 14 14 14 14 14 14 14 14 13 13 13 13 13 13 12 12 12 12 12 11 11 11 11 11 11 10 10 10 10 10 9 10 10 9
14 14 14 14 14 14 14 14 14 14 14 14 14 14 14 14 14 13 13 13 13 13 13 12 12 12 12 11 11 11 11 11 11 10 10 10 10 9 9 9 9 9 9
14 14 14 14 14 14 14 14 14 14 14 14 14 14 14 13 13 13 13 13 13 12 12 12 12 11 11 11 11 11 11 10 10 10 10 9 9 9 9 9 9 9 9
13 13 13 13 13 13 13 14 14 14 14 13 13 13 13 13 13 13 13 13 12 12 12 11 11 11 11 11 11 10 10 10 10 9 9 9 9 9 8 8 8 8 8
13 13 13 13 13 13 13 13 13 13 13 13 13 13 13 13 13 13 12 12 12 12 11 11 11 11 11 10 10 10 9 9 9 9 9 8 8 8 8 8 8 8 8
Wind_Speed
9 7 6 7 6 5 4 4 3 3 2 2 1 1 1 1 2 2 1 2 2 2 1 2 1 1 1 0 1 2 2 4 5 3 4 4 5 6 8 10 11 11 11
9 8 7 6 6 6 5 4 4 3 3 2 2 1 1 2 2 2 2 2 2 2 2 2 2 2 2 1 1 2 3 4 6 7 5 4 4 5 5 6 9 10 10
10 9 8 7 6 5 5 4 4 3 3 2 2 1 1 1 2 2 2 2 2 2 3 3 3 3 3 2 2 3 3 5 6 7 6 4 4 4 5 5 6 7 10
10 9 8 7 6 6 5 5 4 4 3 2 2 2 1 2 3 3 2 2 3 3 3 4 4 4 3 3 3 3 4 5 6 7 7 5 4 4 4 4 5 4 5
9 9 9 8 7 7 6 5 5 4 4 3 3 3 2 3 3 4 2 2 2 3 3 4 5 6 7 5 4 4 4 4 5 6 6 5 5 4 4 3 5 4 4
9 9 9 9 8 7 7 6 5 5 4 4 4 4 3 4 7 8 5 3 2 2 3 3 5 6 7 8 9 7 5 4 4 4 5 6 5 5 4 4 4 4 3
9 8 9 9 9 8 8 7 6 5 5 5 4 4 5 6 7 6 6 2 3 3 3 2 3 6 5 5 5 5 6 6 5 3 4 4 5 5 4 4 3 3 3
9 9 9 9 9 8 7 7 6 5 5 5 4 5 5 5 5 4 3 1 2 3 3 3 5 5 4 3 3 4 4 4 4 3 3 3 4 3 3 4 4 3 3
9 8 8 8 9 8 8 7 6 6 5 5 5 5 5 5 4 3 1 1 2 3 3 3 3 5 5 4 3 3 4 4 6 8 8 7 7 6 5 2 2 3 3
8 7 7 7 8 8 8 7 6 6 6 5 5 5 5 5 5 4 2 2 2 3 3 3 4 5 5 3 2 2 3 2 4 5 5 5 5 5 5 3 2 2 2
6 7 7 7 7 7 7 7 7 6 6 5 6 5 5 6 7 5 4 2 2 2 3 3 4 6 5 2 1 1 2 2 2 4 4 4 3 3 3 3 1 1 1
6 7 7 7 7 7 7 7 7 7 7 6 6 5 5 5 6 6 6 4 2 1 1 3 5 8 5 2 1 2 1 0 2 3 3 3 3 3 3 3 3 2 1
7 7 7 7 6 7 8 8 7 7 7 7 7 6 5 5 6 9 8 5 3 1 1 5 7 8 6 3 4 4 3 2 2 2 3 3 3 4 3 3 4 3 3
6 6 6 7 7 7 6 7 7 7 7 6 6 6 6 6 6 7 6 5 5 4 3 5 7 7 4 4 4 4 4 3 2 2 2 2 3 3 3 3 3 3 3
5 5 5 6 6 6 5 4 6 5 5 6 6 6 6 6 7 10 9 7 6 5 5 4 4 5 5 5 5 5 5 4 4 3 2 2 3 3 3 3 3 3 3
6 5 5 5 5 5 5 4 3 3 5 6 5 5 4 7 10 12 11 9 9 9 6 5 6 6 6 6 6 6 5 4 4 4 4 3 3 3 3 3 3 3 3
5 5 5 4 5 5 5 5 5 3 3 4 5 5 6 8 10 11 11 9 9 9 6 6 6 5 5 5 5 5 5 5 4 4 4 3 3 3 3 3 3 3 3
5 5 5 4 5 5 5 5 5 6 5 5 5 6 8 9 11 11 11 8 6 7 7 7 6 6 5 5 5 5 4 5 4 4 4 3 3 3 3 3 3 3 3
5 5 5 4 5 5 5 5 6 6 6 5 5 4 6 7 8 9 10 7 8 8 9 8 7 6 6 5 5 4 4 4 4 4 4 3 3 3 3 3 3 3 4
5 6 5 5 6 6 5 5 5 5 6 6 6 6 6 6 5 6 7 8 8 8 7 7 6 6 5 5 5 5 5 5 5 5 4 4 4 3 3 3 3 3 4
5 5 6 6 6 6 5 5 5 5 6 6 5 6 11 8 8 9 8 8 8 7 6 6 6 6 5 4 5 5 5 4 4 4 4 4 3 3 3 4 4 4 4
4 4 5 5 5 5 5 5 6 6 7 6 4 6 11 8 7 8 8 7 7 7 6 6 6 5 5 6 5 5 5 5 4 4 3 3 3 3 4 4 4 3 3
4 5 5 4 4 4 4 5 5 5 5 5 5 5 6 7 7 6 7 6 6 6 5 4 4 4 3 3 3 3 4 4 4 3 4 3 4 4 4 4 4 4 4
4 4 4 3 4 4 5 5 4 4 4 4 4 4 5 6 6 6 5 5 5 4 4 4 4 4 4 3 3 3 2 2 3 3 4 4 5 4 4 4 4 4 3
3 3 2 3 4 4 4 3 3 2 2 2 3 4 4 5 5 4 3 3 3 4 4 4 3 3 3 3 3 3 3 3 3 3 3 3 4 4 3 4 3 3 3
2 2 2 3 3 3 3 3 3 3 3 3 4 4 3 3 3 3 2 2 2 3 3 3 3 3 3 3 4 4 4 3 3 3 3 3 4 3 2 3 3 2 2
Wind_Direction
176 178 171 169 170 168 165 155 139 132 134 136 111 78 62 61 55 37 46 59 50 41 20 27 5 343 346 37 139 131 122 126 131 126 114 122 114 112 120 126 121 111 106
173 167 170 168 168 168 166 158 151 151 154 149 136 117 56 68 73 58 33 49 56 54 44 34 10 14 25 30 95 120 124 125 136 137 135 133 127 133 138 139 129 123 118
171 171 171 171 168 166 156 148 152 147 139 129 121 107 49 57 81 71 53 39 54 61 57 51 37 42 37 46 78 97 118 124 130 139 146 146 143 150 143 135 129 128 131
169 172 169 168 163 155 150 151 153 145 139 133 118 99 70 65 68 64 64 55 56 68 66 63 53 55 43 41 83 87 113 124 133 141 145 149 146 154 145 145 142 141 134
167 171 166 164 160 157 156 153 148 147 143 135 117 101 88 93 73 56 43 84 70 76 81 83 76 79 67 61 77 77 99 121 135 140 144 145 149 158 165 161 146 143 134
170 173 166 165 164 164 162 157 154 150 141 135 129 121 108 89 70 55 40 55 75 78 90 100 117 106 91 83 81 80 85 114 133 142 147 157 165 171 166 165 154 158 161
170 172 169 168 168 168 169 162 160 159 151 144 140 124 107 95 85 71 50 45 79 82 88 98 102 98 96 91 90 84 74 75 97 124 140 158 161 167 170 164 158 162 161
172 176 173 171 167 163 164 164 163 161 158 155 148 135 126 122 107 88 44 70 106 111 102 89 94 99 88 89 108 100 94 77 73 87 104 116 128 133 152 164 163 157 149
175 176 171 167 165 166 169 167 164 165 165 164 155 149 143 136 140 127 69 158 134 122 110 97 102 106 89 67 108 120 117 119 97 94 98 114 123 128 129 133 162 166 174
176 168 161 165 169 171 168 168 167 168 170 171 165 162 156 153 164 164 176 201 158 148 134 116 103 111 116 79 97 114 124 123 122 123 116 128 142 153 165 176 183 199 191
158 157 163 169 172 171 166 171 172 173 173 175 168 169 167 164 167 179 189 211 186 174 165 159 140 136 134 116 99 114 141 139 150 157 156 157 159 166 182 188 186 203 216
158 164 169 173 181 174 169 174 176 177 180 181 178 182 178 170 171 186 193 204 243 231 170 138 141 152 153 166 151 145 139 157 204 178 169 172 176 179 179 175 173 170 175
165 169 172 174 178 172 176 179 182 186 192 192 188 191 187 176 176 178 186 199 215 211 110 121 142 161 164 184 197 192 197 218 219 203 193 189 180 169 167 167 172 180 202
172 172 170 174 180 180 183 186 191 195 199 199 194 191 186 184 182 177 182 189 188 180 165 145 158 176 191 198 182 196 213 225 219 221 202 181 162 159 173 181 185 194 206
171 173 177 185 184 182 184 194 195 200 204 201 201 197 194 197 191 176 179 185 185 179 167 168 181 182 193 199 198 202 208 214 223 228 209 190 185 187 194 192 190 201 215
172 177 188 192 188 185 183 188 176 198 195 185 188 200 204 189 170 166 171 175 172 168 175 196 203 202 204 202 200 201 207 211 210 211 204 195 201 208 207 200 196 210 228
185 188 201 202 199 194 193 196 199 198 188 194 202 205 201 180 168 167 170 174 175 169 196 213 213 208 211 210 206 204 205 201 202 213 211 199 204 213 214 212 209 215 228
199 199 202 206 207 209 207 207 208 203 200 210 212 202 186 177 175 171 164 159 184 196 218 221 218 212 210 213 211 209 205 193 195 204 206 206 215 219 220 222 213 211 219
213 213 208 214 213 214 214 214 214 212 209 204 192 183 186 172 169 172 167 190 208 212 216 218 219 217 214 207 206 209 209 198 192 196 205 205 214 224 231 229 215 216 230
221 213 209 218 222 223 223 223 220 215 214 213 206 186 163 162 184 190 200 212 220 220 218 220 221 219 212 208 202 202 206 202 197 202 205 206 209 223 240 245 236 223 230
230 216 211 225 226 225 227 228 228 227 226 222 212 186 170 185 199 201 204 212 218 220 220 222 219 218 214 212 210 207 207 207 198 202 207 208 208 210 227 243 240 236 235
242 235 224 227 231 231 232 229 232 235 231 222 211 193 180 195 208 207 207 207 212 221 221 220 224 222 212 210 210 206 202 203 207 205 207 213 217 225 236 243 238 230 236
241 242 237 230 236 230 232 238 239 238 236 224 213 193 190 210 219 211 207 206 208 215 219 222 226 226 211 205 203 197 205 208 203 196 199 216 233 235 235 235 233 239 239
245 245 238 225 229 241 241 242 242 243 242 232 222 209 204 211 223 219 208 200 200 204 203 208 217 216 199 184 187 192 185 191 201 196 205 224 234 240 244 241 237 245 242
243 235 240 231 231 239 241 238 239 248 245 230 232 230 220 220 229 231 219 206 196 198 197 198 203 207 196 185 175 174 176 177 193 213 225 233 234 232 243 250 239 240 237
272 268 257 252 233 236 234 231 233 234 235 234 233 236 239 224 216 217 211 196 201 206 202 187 170 167 173 187 178 162 168 179 191 224 243 254 246 234 239 247 245 243 227
Height
1528 1530 1531 1532 1534 1535 1536 1537 1537 1538 1538 1538 1538 1538 1537 1536 1535 1535 1534 1533 1533 1532 1532 1532 1531 1532 1532 1532 1532 1533 1534 1535 1535 1537 1539 1541 1542 1543 1543 1544 1544 1545 1545
1526 1528 1530 1531 1532 1533 1534 1535 1536 1536 1536 1536 1536 1536 1536 1535 1534 1533 1533 1532 1532 1531 1531 1530 1530 1530 1530 1531 1531 1532 1533 1533 1534 1535 1538 1540 1541 1542 1544 1544 1544 1545 1545
1524 1526 1528 1529 1531 1532 1533 1534 1534 1535 1535 1535 1535 1534 1534 1534 1533 1532 1532 1531 1531 1530 1530 1529 1529 1529 1529 1530 1530 1531 1532 1533 1534 1534 1536 1538 1540 1542 1543 1544 1545 1545 1546
1522 1524 1526 1527 1529 1530 1531 1532 1533 1534 1533 1533 1533 1532 1532 1532 1531 1531 1530 1530 1530 1530 1529 1529 1529 1529 1529 1529 1530 1530 1531 1532 1533 1534 1536 1538 1540 1541 1543 1543 1545 1546 1546
1520 1522 1523 1525 1526 1528 1529 1530 1531 1531 1532 1531 1531 1530 1530 1530 1530 1529 1529 1529 1529 1529 1529 1529 1529 1529 1529 1529 1530 1530 1531 1531 1532 1534 1535 1537 1539 1540 1542 1543 1544 1545 1546
1518 1519 1521 1523 1524 1525 1527 1528 1529 1529 1530 1530 1530 1529 1529 1529 1529 1529 1529 1528 1528 1528 1528 1529 1529 1529 1529 1530 1530 1530 1531 1531 1532 1533 1534 1536 1537 1539 1540 1542 1543 1544 1545
1515 1517 1519 1520 1522 1523 1525 1526 1527 1527 1528 1528 1528 1528 1528 1528 1528 1528 1528 1528 1528 1528 1528 1529 1529 1529 1530 1530 1530 1531 1531 1532 1533 1533 1534 1535 1536 1537 1539 1541 1542 1543 1543
1512 1514 1516 1518 1519 1520 1522 1523 1524 1525 1526 1526 1527 1527 1527 1527 1527 1527 1528 1528 1528 1528 1528 1528 1529 1529 1530 1530 1530 1531 1531 1532 1533 1533 1533 1534 1535 1536 1538 1539 1540 1541 1543
1509 1511 1513 1515 1516 1518 1519 1521 1522 1522 1523 1524 1525 1525 1526 1526 1526 1526 1527 1527 1528 1528 1529 1529 1529 1529 1529 1530 1530 1530 1531 1532 1532 1533 1533 1534 1535 1536 1537 1538 1539 1540 1540
1506 1508 1510 1512 1513 1515 1517 1518 1519 1520 1521 1522 1523 1523 1524 1525 1525 1525 1526 1526 1527 1527 1528 1529 1529 1529 1529 1529 1530 1530 1530 1531 1532 1532 1533 1534 1534 1535 1536 1537 1538 1538 1539
1503 1505 1507 1509 1510 1512 1513 1515 1516 1517 1519 1519 1520 1521 1522 1523 1524 1524 1525 1525 1526 1527 1527 1527 1528 1528 1528 1529 1529 1529 1530 1530 1531 1531 1532 1533 1533 1534 1535 1536 1536 1537 1537
1500 1502 1503 1505 1508 1509 1511 1512 1513 1514 1516 1517 1518 1518 1519 1520 1521 1522 1523 1524 1524 1525 1526 1526 1527 1527 1527 1528 1528 1529 1529 1530 1530 1531 1531 1532 1532 1533 1533 1534 1534 1535 1535
1497 1498 1500 1502 1504 1506 1507 1509 1510 1511 1513 1514 1514 1515 1516 1517 1518 1519 1521 1522 1523 1523 1524 1525 1525 1526 1526 1526 1527 1528 1528 1528 1529 1529 1530 1531 1531 1531 1531 1532 1533 1533 1533
1494 1495 1496 1499 1501 1503 1504 1506 1507 1509 1510 1511 1512 1512 1513 1514 1514 1515 1517 1518 1520 1521 1522 1523 1523 1524 1524 1525 1525 1526 1526 1527 1528 1528 1529 1529 1530 1530 1530 1530 1530 1531 1531
1491 1492 1494 1496 1498 1500 1501 1503 1503 1505 1506 1507 1508 1509 1509 1510 1511 1512 1513 1515 1516 1517 1519 1520 1520 1521 1521 1522 1523 1524 1524 1525 1526 1526 1527 1527 1528 1528 1528 1528 1529 1529 1529
1489 1490 1492 1494 1495 1497 1498 1499 1500 1501 1503 1504 1504 1505 1505 1507 1508 1509 1510 1511 1512 1514 1515 1516 1517 1517 1518 1519 1520 1520 1521 1522 1523 1523 1524 1525 1525 1526 1526 1527 1527 1527 1527
1486 1487 1489 1491 1492 1492 1494 1495 1496 1497 1498 1499 1500 1501 1501 1502 1502 1504 1505 1507 1508 1510 1511 1511 1512 1514 1515 1516 1517 1517 1518 1519 1520 1520 1521 1522 1522 1523 1523 1524 1524 1524 1524
1484 1485 1486 1488 1489 1490 1491 1491 1492 1493 1493 1493 1495 1496 1496 1497 1498 1499 1501 1502 1503 1504 1505 1506 1508 1509 1511 1512 1513 1514 1515 1516 1516 1517 1518 1518 1519 1520 1520 1521 1521 1521 1521
1481 1482 1483 1485 1486 1487 1487 1488 1488 1489 1489 1489 1490 1491 1492 1493 1494 1495 1496 1496 1498 1499 1500 1502 1503 1505 1506 1507 1508 1510 1511 1512 1512 1513 1514 1514 1515 1516 1517 1517 1517 1518 1518
1478 1479 1480 1481 1482 1483 1484 1484 1484 1485 1485 1486 1486 1486 1487 1488 1489 1490 1491 1491 1492 1494 1496 1497 1499 1500 1501 1502 1503 1505 1506 1507 1508 1509 1509 1510 1511 1512 1513 1513 1514 1514 1514
1474 1475 1476 1478 1478 1479 1480 1480 1481 1481 1481 1482 1482 1483 1483 1484 1485 1486 1487 1487 1488 1489 1491 1492 1493 1495 1496 1498 1499 1500 1501 1502 1503 1504 1505 1506 1506 1507 1508 1509 1510 1510 1510
1470 1471 1472 1473 1474 1475 1476 1476 1476 1477 1477 1477 1478 1479 1479 1480 1482 1482 1483 1484 1484 1485 1487 1488 1489 1490 1491 1492 1493 1494 1495 1496 1497 1498 1499 1500 1501 1502 1503 1504 1505 1505 1505
1466 1467 1469 1469 1471 1472 1472 1473 1473 1473 1473 1474 1474 1475 1475 1476 1478 1479 1479 1480 1481 1482 1483 1484 1484 1485 1485 1486 1488 1488 1489 1490 1491 1492 1493 1494 1496 1497 1498 1499 1500 1500 1501
1463 1464 1465 1465 1467 1468 1469 1469 1470 1470 1469 1470 1470 1471 1471 1472 1474 1475 1476 1476 1477 1477 1478 1479 1479 1480 1481 1481 1482 1483 1484 1484 1485 1486 1487 1489 1490 1492 1493 1494 1495 1495 1496
1460 1460 1461 1462 1464 1465 1465 1465 1466 1466 1465 1465 1467 1468 1468 1469 1470 1471 1472 1472 1473 1473 1474 1474 1475 1475 1476 1476 1477 1477 1478 1479 1480 1481 1482 1483 1485 1486 1488 1489 1490 1490 1491
1458 1458 1459 1459 1460 1461 1461 1462 1463 1463 1463 1463 1464 1465 1466 1467 1467 1467 1468 1468 1469 1470 1470 1470 1470 1470 1471 1471 1472 1472 1473 1473 1474 1475 1477 1478 1479 1481 1482 1483 1484 1485 1486